Regional Weather Roundup
Issued by NWS

Home | Current Version | Previous Version | Text Only | Print | Product List | Glossary On
Versions: 1 2 3 4 5 6 7 8 9 10 11 12 13 14 15 16 17 18 19 20 21 22 23 24 25 26 27 28 29 30 31 32 33 34 35 36 37 38 39 40 41 42 43 44 45 46 47 48 49 50
000
ASUS45 KSLC 161710
RWRUT

UTAH REGIONAL WEATHER ROUNDUP
NATIONAL WEATHER SERVICE SALT LAKE CITY UT
1000 AM MST MON JAN 16 2017

UTZ001>011-023>025-161800-

NORTHERN UTAH

CITY           SKY/WX    TMP DP  RH WIND       PRES   REMARKS
BRIGHAM CITY     N/A     13   9  85 CALM      30.31R
HILL AFB       MOSUNNY   14   5  68 E16       30.27R WCI  -2
LOGAN          PTSUNNY    4   1  88 N5        30.34S FOG     WCI  -5
OGDEN          SUNNY     17   9  70 S6        30.28R WCI   9
SALT LAKE CITY PTSUNNY   25  16  68 VRB5      30.30R WCI  19
TOOELE VALLEY  CLOUDY    27  23  86 N3        30.30S
WENDOVER       CLOUDY    21  18  86 CALM      30.32R
HEBER CITY     LGT SNOW  14  12  92 CALM      30.25R VSB 1
WEST JORDAN    SUNNY     24  24 100 W6        30.28S WCI  16

$$

UTZ011>015-024>027-161800-

CENTRAL/NORTHEAST UTAH

CITY           SKY/WX    TMP DP  RH WIND       PRES   REMARKS
PROVO AIRPORT  LGT SNOW  25  19  80 N7        30.30R WCI  17
MOAB/CANYONLAN SUNNY     35  32  88 NW3       30.07R
DELTA          SUNNY     27  21  80 N7        30.27R WCI  19
PRICE          SUNNY     31  14  49 NW6       30.08R WCI  25
RICHFIELD      CLOUDY    30  21  69 NE8       30.24R WCI  23
ROOSEVELT      CLOUDY    27  19  74 W5        30.22R WCI  21
VERNAL         CLOUDY    21  18  88 N3        30.21R

$$

UTZ013>016-019>022-027-161800-

SOUTHERN UTAH

CITY           SKY/WX    TMP DP  RH WIND       PRES   REMARKS
BRYCE CANYON   CLOUDY    19  13  77 N10       30.10R WCI   7
CEDAR CITY     CLOUDY    27  17  66 N12       30.18R WCI  17
MILFORD        CLOUDY    28  20  71 N15       30.23R WCI  16
ST GEORGE      SUNNY     37  25  60 SW7       30.17R WCI  32
HANKSVILLE     SUNNY     36  28  75 MISG      30.11R
KANAB          SUNNY     36  21  55 N6        30.13R WCI  31
BLANDING       PTSUNNY   34  32  94 CALM      30.06R

$$

REGIONAL REPORTS     COLORADO/ARIZONA

CITY           SKY/WX    TMP DP  RH WIND       PRES   REMARKS
CRAIG, CO      CLOUDY    13   8  81 CALM      30.16S
GRAND JUNCTION MOSUNNY   37  22  54 W5        30.07R WCI  33
RIFLE, CO      CLOUDY    30  15  53 VRB7      30.09S WCI  23
MONTROSE, CO   CLOUDY    32  18  56 NW6       30.08  WCI  26
CORTEZ, CO     CLOUDY    34  29  82 W10       29.97R WCI  26
COLORADO CITY    N/A     36  28  75 CALM      30.12R
PAGE, AZ       MOSUNNY   41  21  44 CALM      30.06R
GRAND CANYON   SUNNY     33  30  88 CALM      30.05R
KINGMAN, AZ      N/A     40  23  50 NE7       30.10R
FLAGSTAFF, AZ  CLOUDY    32  30  92 CALM      30.04R

$$

REGIONAL REPORTS    NEVADA/IDAHO/WYOMING

CITY           SKY/WX    TMP DP  RH WIND       PRES   REMARKS
LAS VEGAS, NV  MOSUNNY   48  20  32 N23G38    30.14R
ELY, NY        CLOUDY    17  15  92 N12       30.23R WCI   4
ELKO, NV       CLOUDY    21  16  81 W3        30.33R
POCATELLO, ID  FLURRIES   3  -1  83 CALM      30.37R
BURLEY, ID     LGT SNOW  13   9  84 N3        30.35S FOG
FORT BRIDGER,    N/A      2   2  96 W5        30.21R WCI  -7
EVANSTON, WY   CLOUDY     2   1  96 CALM      30.18R FOG
ROCK SPRINGS,  HAZE      -6 -11  79 SW8       30.20R VSB 3/4 WCI -21
KEMMERER, WY     N/A    N/A N/A N/A N14       30.17R

$$



USA.gov is the U.S. government's official web portal to all federal, state and local government web resources and services.